• Join FlightAware (Why Join?)
  • Login
  • US Flag 
04:59PM EST


 

Airport Tracker/Info


-or-


 

Live Flight TrackerFlight Track Log ✈ FDX1425 ✈ 08-Oct-2013 ✈ KMEM - KIAH

Flight Track Log - Related Links

Times and Time Zones

All times are in EDT time to prevent confusion due to time zone crossing. See the FDX1425 flight status page for this flight to view local times or setup timezone preferences in your user account.

Time Position Orientation Groundspeed Altitude Reporting Facility
EDT Latitude Longitude Course Direction KTS MPH feet Rate Location/Type
05:01AM 35.0167 -89.9833 180° South 174 200 1,100  Level KMEM
05:02AM 34.9667 -89.9833 180° South 211 243 2,400 2,190 Climbing KMEM
05:08AM 34.5750 -90.3720 180° South 419 482 15,300 2,325 Climbing FlightAware
05:08AM 34.5290 -90.4310 227° Southwest 421 484 16,700 2,229 Climbing FlightAware
05:09AM 34.4770 -90.4890 223° Southwest 429 494 17,900 1,818 Climbing FlightAware
05:10AM 34.4290 -90.5320 216° Southwest 439 505 18,700 1,826 Climbing FlightAware
05:10AM 34.3650 -90.5900 217° Southwest 443 510 20,000 1,724 Climbing FlightAware
05:11AM 34.2870 -90.6610 217° Southwest 455 524 21,200 1,443 Climbing FlightAware
05:11AM 34.2450 -90.6980 216° Southwest 459 528 21,900 609 Climbing FlightAware
05:12AM 34.1890 -90.7470 216° Southwest 459 528 21,900 1,425 Level FlightAware
05:13AM 34.1010 -90.8270 217° Southwest 464 534 23,800 1,462 Climbing FlightAware
05:13AM 34.0480 -90.8740 216° Southwest 464 534 23,800  Level FlightAware
05:14AM 33.9950 -90.9210 216° Southwest 464 534 23,800  Level FlightAware
05:15AM 33.9400 -90.9680 215° Southwest 464 534 23,800  Level FlightAware
05:15AM 33.8870 -91.0150 216° Southwest 464 534 23,800  Level FlightAware
05:16AM 33.8340 -91.0610 216° Southwest 464 534 23,800 3,778 Level FlightAware
05:17AM 33.7003 -91.1886 216° Southwest 488 562 28,900 4,114 Climbing Memphis Center
05:18AM 33.5764 -91.2947 216° Southwest 498 573 31,000 1,547 Climbing Memphis Center
05:19AM 33.4114 -91.4417 217° Southwest 464 534 33,000 1,170 Climbing Fort Worth Center
05:20AM 33.3094 -91.5353 218° Southwest 475 547 34,100 367 Climbing Fort Worth Center
05:26AM 32.6580 -92.0930 218° Southwest 36,000 265 Climbing FlightAware
05:27AM 32.5830 -92.1580 216° Southwest 474 545 36,000  Level FlightAware
05:28AM 32.4530 -92.2690 216° Southwest 477 549 36,000  Level FlightAware
05:29AM 32.4020 -92.3140 217° Southwest 477 549 36,000  Level FlightAware
05:29AM 32.3390 -92.3670 215° Southwest 476 548 36,000  Level FlightAware
05:30AM 32.2850 -92.4140 216° Southwest 476 548 36,000 79 Level FlightAware
05:30AM 32.2100 -92.4770 215° Southwest 476 548 36,100  Climbing FlightAware
05:31AM 32.1000 -92.5690 215° Southwest 477 549 36,000 -63 Descending FlightAware
05:32AM 32.0420 -92.6180 216° Southwest 477 549 36,000  Level FlightAware
05:33AM 31.9450 -92.7010 216° Southwest 477 549 36,000  Level FlightAware
05:34AM 31.8890 -92.7490 216° Southwest 477 549 36,000  Level FlightAware
05:34AM 31.8320 -92.8260 229° Southwest 702 808 36,000  Level FlightAware
05:35AM 31.7478 -92.9292 229° Southwest 471 542 36,000 -50 Level Houston Center
05:36AM 31.6553 -93.0386 225° Southwest 474 545 35,900 -58 Descending Houston Center
05:42AM 31.1053 -93.6922 225° Southwest 465 535 35,600 -267 Descending FlightAware ADS-B
05:42AM 31.0593 -93.7455 225° Southwest 468 539 34,200 -3,148 Descending FlightAware ADS-B
05:43AM 31.0130 -93.8001 225° Southwest 477 549 32,400 -3,639 Descending FlightAware ADS-B
05:43AM 30.9658 -93.8552 225° Southwest 483 556 30,500 -4,100 Descending FlightAware ADS-B
05:44AM 30.9173 -93.9128 226° Southwest 487 560 28,300 -3,934 Descending FlightAware ADS-B
05:44AM 30.8685 -93.9705 225° Southwest 484 557 26,500 -3,194 Descending FlightAware ADS-B
05:45AM 30.8194 -94.0273 225° Southwest 477 549 25,000 -2,903 Descending FlightAware ADS-B
05:45AM 30.7722 -94.0813 225° Southwest 467 537 23,500 -2,806 Descending FlightAware ADS-B
05:46AM 30.7257 -94.1358 225° Southwest 460 529 22,100 -2,852 Descending FlightAware ADS-B
05:46AM 30.6804 -94.1896 226° Southwest 451 519 20,600 -2,900 Descending FlightAware ADS-B
05:47AM 30.6360 -94.2404 225° Southwest 441 507 19,200 -2,754 Descending FlightAware ADS-B
05:47AM 30.5926 -94.2900 225° Southwest 430 495 17,800 -2,852 Descending FlightAware ADS-B
05:48AM 30.5506 -94.3402 226° Southwest 423 487 16,300 -2,800 Descending FlightAware ADS-B
05:48AM 30.5088 -94.3877 224° Southwest 412 474 15,000 -2,557 Descending FlightAware ADS-B
05:49AM 30.4685 -94.4341 225° Southwest 404 465 13,700 -2,632 Descending FlightAware ADS-B
05:49AM 30.4330 -94.4754 225° Southwest 402 463 12,500 -2,036 Descending FlightAware ADS-B
05:50AM 30.3940 -94.5199 225° Southwest 381 438 11,800 -689 Descending FlightAware ADS-B
05:50AM 30.3583 -94.5608 225° Southwest 340 391 11,800  Level FlightAware ADS-B
05:51AM 30.3263 -94.5984 225° Southwest 304 350 11,800 -500 Level FlightAware ADS-B
05:51AM 30.2974 -94.6304 224° Southwest 292 336 11,300 -1,200 Descending FlightAware ADS-B
05:52AM 30.2686 -94.6633 225° Southwest 289 333 10,600 -1,625 Descending FlightAware ADS-B
05:52AM 30.2516 -94.6830 225° Southwest 292 336 10,000 -1,818 Descending FlightAware ADS-B
05:52AM 30.2371 -94.6997 225° Southwest 293 337 9,600 -1,400 Descending FlightAware ADS-B
05:53AM 30.2224 -94.7172 226° Southwest 288 331 9,300 -1,600 Descending FlightAware ADS-B
05:53AM 30.2080 -94.7335 224° Southwest 291 335 8,800 -1,800 Descending FlightAware ADS-B
05:53AM 30.1936 -94.7500 225° Southwest 291 335 8,400 -1,400 Descending FlightAware ADS-B
05:53AM 30.1793 -94.7662 224° Southwest 288 331 8,100 -1,355 Descending FlightAware ADS-B
05:54AM 30.1648 -94.7825 224° Southwest 286 329 7,700 -1,355 Descending FlightAware ADS-B
05:54AM 30.1505 -94.7986 224° Southwest 284 327 7,400 -1,200 Descending FlightAware ADS-B
05:54AM 30.1364 -94.8156 226° Southwest 276 318 7,100 -1,355 Descending FlightAware ADS-B
05:54AM 30.1223 -94.8313 224° Southwest 279 321 6,700 -1,548 Descending FlightAware ADS-B
05:55AM 30.1084 -94.8481 226° Southwest 279 321 6,300 -1,600 Descending FlightAware ADS-B
05:55AM 30.0944 -94.8640 224° Southwest 278 320 5,900 -1,400 Descending FlightAware ADS-B
05:55AM 30.0804 -94.8796 224° Southwest 276 318 5,600 -1,161 Descending FlightAware ADS-B
05:56AM 30.0663 -94.8950 223° Southwest 273 314 5,300 -1,161 Descending FlightAware ADS-B
05:56AM 30.0528 -94.9112 226° Southwest 268 308 5,000 -1,286 Descending FlightAware ADS-B
05:56AM 30.0409 -94.9243 224° Southwest 271 312 4,700 -1,448 Descending FlightAware ADS-B
05:56AM 30.0272 -94.9397 224° Southwest 272 313 4,300 -1,313 Descending FlightAware ADS-B
05:57AM 30.0132 -94.9559 225° Southwest 264 304 4,000 -1,000 Descending FlightAware ADS-B
05:57AM 30.0057 -94.9648 226° Southwest 263 303 3,900 -261 Descending FlightAware ADS-B
05:57AM 29.9927 -94.9793 224° Southwest 252 290 3,900  Level FlightAware ADS-B
05:57AM 29.9895 -94.9832 227° Southwest 248 285 3,900  Level FlightAware ADS-B
05:57AM 29.9872 -94.9862 228° Southwest 247 284 3,900  Level FlightAware ADS-B
05:57AM 29.9848 -94.9906 238° Southwest 247 284 3,900  Level FlightAware ADS-B
05:57AM 29.9831 -94.9939 239° Southwest 247 284 3,900  Level FlightAware ADS-B
05:57AM 29.9816 -94.9975 244° Southwest 246 283 3,900  Level FlightAware ADS-B
05:57AM 29.9806 -95.0013 253° West 245 282 3,900  Level FlightAware ADS-B
05:57AM 29.9798 -95.0063 260° West 243 280 3,900  Level FlightAware ADS-B
05:57AM 29.9795 -95.0102 265° West 241 277 3,900  Level FlightAware ADS-B
05:57AM 29.9791 -95.0179 267° West 242 278 3,900  Level FlightAware ADS-B
05:58AM 29.9778 -95.0360 265° West 243 280 3,900  Level FlightAware ADS-B
05:58AM 29.9773 -95.0424 265° West 243 280 3,900  Level FlightAware ADS-B
05:58AM 29.9769 -95.0516 267° West 243 280 3,900 -273 Level FlightAware ADS-B
05:58AM 29.9771 -95.0722 271° West 243 280 3,800 -400 Descending FlightAware ADS-B
05:58AM 29.9776 -95.0916 272° West 243 280 3,700 -1,059 Descending FlightAware ADS-B
05:58AM 29.9777 -95.1033 271° West 243 280 3,500 -1,500 Descending FlightAware ADS-B
05:59AM 29.9777 -95.1111 270° West 244 281 3,300 -1,909 Descending FlightAware ADS-B
05:59AM 29.9776 -95.1307 270° West 245 282 2,800 -2,000 Descending FlightAware ADS-B
05:59AM 29.9776 -95.1320 269° West 245 282 2,800 -818 Level FlightAware ADS-B
05:59AM 29.9776 -95.1515 270° West 242 278 2,500 -1,200 Descending FlightAware ADS-B
05:59AM 29.9777 -95.1768 270° West 233 268 2,100 -1,171 Descending FlightAware ADS-B
06:00AM 29.9777 -95.2011 270° West 227 261 1,700 -1,105 Descending FlightAware ADS-B
06:00AM 29.9776 -95.2213 270° West 201 231 1,400 -1,091 Descending FlightAware ADS-B
06:00AM 29.9776 -95.2375 270° West 182 209 1,100 -1,125 Descending FlightAware ADS-B
06:01AM 29.9776 -95.2519 270° West 160 184 800 -774 Descending FlightAware ADS-B
06:01AM 29.9776 -95.2641 270° West 149 171 700 -581 Descending FlightAware ADS-B
06:01AM 29.9776 -95.2759 270° West 146 168 500 -774 Descending FlightAware ADS-B
06:01AM 29.9776 -95.2884 270° West 144 166 300 -774 Descending FlightAware ADS-B
06:02AM 29.9776 -95.2998 270° West 142 163 100 -750 Descending FlightAware ADS-B
06:02AM 29.9776 -95.3177 270° West 110 127 -231 Descending FlightAware ADS-B